{"data":{"norad_id":66244,"epoch":"2026-09-19T21:44:28.508064Z","epoch_age_seconds":147997,"freshness":"FRESH","line1":"1 66244U 25245L   26262.90588551  .00018388  00000+0  55399-3 0  9990","line2":"2 66244  53.1583 100.2374 0000858 118.2698 241.8391 15.34401660 50803","mean_motion":15.3440166,"eccentricity":8.58e-5,"inclination_deg":53.1583,"raan_deg":100.2374,"arg_perigee_deg":118.2698,"mean_anomaly_deg":241.8391,"bstar":0.00055399,"rev_number":5080,"period_min":93.847656551675,"perigee_km":462.11136267244,"apogee_km":463.28525001101,"semimajor_km":6840.8353063417,"source":"CELESTRAK","updated_at":"2026-09-21T09:00:35.847726Z"}}